Location: Newark
(22.3060°N, 114.2134°E)
Time: 01:39:07
(UTC+00:00)

Vanguard 2 - Pass Details

Date: 06 August 2021
Orbit: 553 x 2937 km, 32.9° (Epoch: 27 September)

Event Time Altitude Azimuth Distance (km) Brightness Sun altitude
Rises 15:24:35 0° 213° (SSW) 4,851 - -48.1°
Reaches altitude 10° 15:29:11 10° 200° (SSW) 3,391 - -48.5°
Maximum altitude 15:35:01 22° 154° (SSE) 2,057 - -49.0°
Drops below altitude 10° 15:39:15 10° 104° (ESE) 2,378 - -49.3°
Sets 15:41:50 0° 87° (E) 3,086 - -49.5°
